RASSVET-3 6

导读

RASSVET-3 6(NORAD编号68365)是俄罗斯私营航天企业Buro 1440主导研发的黎明星座首批量产卫星之一,属于俄罗斯自主低轨卫星互联网项目(被称为“俄版星链”)。该卫星于2026年3月23日随15颗同型号卫星由联盟-2火箭在普列谢茨克发射场发射入轨,单星质量约370公斤,初始轨道近地点290公里、远地点324公里,倾角82.3度,后续将转移至800公里目标轨道。 卫星搭载5G NTN非地面网络通信系统与星间激光通信终端,定位军民两用,旨在构建俄罗斯自主可控的太空通信网,填补偏远地区通信盲区,同时为军事应用提供独立通信链路,摆脱对外国卫星系统的依赖。

基本信息
目录编号:
68365
目录名称:
RASSVET-3 6
国际标识:
2026-061F
轨道中心:
EARTH
卫星名称:
RASSVET-3 6
卫星全名:
RASSVET-3 6
卫星状态:
在轨 (已飞行166 天)
发射日期:
2026-03-23 UTC
国别 :
俄罗斯(独联体) (CIS)
星等 :
--
轨道信息
数据来源 国际轨道数据
星历时间: 2026-09-05T09:45:08+0800
9小时前
查看轨道信息
半长轴: 6888.966km
偏心率: 0.0000901
轨道倾角: 82.293°
近地点辐角 34.975°
升交点赤经 293.221°
平近点角 325.155°
近地点: 510.208km
远地点: 511.45km
周期: 94.840分钟
每日圈数: 15.183495
详细信息
使用方式:
暂无
2D轨道图
3D轨道图
轨道高度分析图
轨道倾角分析图
轨道综合分析图
查看轨道综合分析图
交会数据列表
事件ID 空间交会对象 最接近时刻(TCA) 交会距离 交会风险概率(CRP) 交会风险指数(CRI) 操作
CDM_260906-085605-703606-836522
2026-09-06T
08:56:07+0000
0.740 km
远距离
4.790535E-5 中风险 0.69
CDM_260907-193804-367906-836521
STARS-AO (43679)
2026-09-07T
19:38:49+0000
1.501 km
极远距离
6.8109E-6 低风险 0.52
CDM_260905-184603-161906-836523
2026-09-05T
18:46:42+0000
1.815 km
极远距离
3.751456E-6 低风险 0.46